Home > Weather > Knox > Past weeks

Flag for USA Past Weather in Knox, Indiana, USA — Yesterday and Last 2 Weeks

Now
75 °F

Sunny.


Feels Like: 77 °F
Forecast: 51 / 76 °F
Wind: 8 mph from North

Location: Porter County Municipal Airport

Current Time: Jun 29, 2016 at 3:12:09 PM

Latest Report: Jun 29, 2016 at 1:56 PM


Visibility: 10 mi

Pressure: 30.12 "Hg

Humidity: 36%

Dew Point: 46 °F

Location of KnoxLocation

Past Weather in Knox — Graph

°F

Knox Temperature Yesterday

Maximum temperature yesterday: 67 °F (at 1:56 AM)
Minimum temperature yesterday: 54 °F (at 11:56 PM)
Average temperature yesterday: 63 °F

High & Low Weather Summary for the Past Weeks

 TemperatureHumidityPressure
High93 °F (Jun 27, 1:56 PM)96% (Jun 15, 5:56 AM)30.26 "Hg (Jun 15, 5:56 AM)
Low50 °F (Jun 29, 2:56 AM)23% (Jun 18, 1:56 PM)29.70 "Hg (Jun 15, 11:56 PM)
Average74 °F65%30.01 "Hg
* Reported Jun 14 12:56 PM — Jun 29 12:56 PM, Knox, Weather by CustomWeather, © 2016

Note: Actual official high and low records may vary slightly from our data, if they occured in-between our weather recording intervals... More about our weather records

Advertising

Knox Weather History for the Previous 24 Hours

Scroll right to see more
 ConditionsComfort  
Time TempWeatherWind HumidityBarometerVisibility
12:56 PM
Wed, Jun 29
75 °FSunny.9 mph36%30.13 "Hg10 mi
11:56 AM73 °FSunny.8 mph36%30.14 "Hg10 mi
10:56 AM72 °FSunny.8 mph35%30.14 "Hg10 mi
9:56 AM70 °FSunny.7 mph41%30.14 "Hg10 mi
8:56 AM68 °FSunny.6 mph53%30.14 "Hg10 mi
7:56 AM65 °FSunny.7 mph68%30.14 "Hg10 mi
6:56 AM61 °FSunny.5 mph78%30.13 "Hg10 mi
5:56 AM52 °FSunny.No wind93%30.12 "Hg10 mi
4:56 AM52 °FClear.No wind86%30.12 "Hg10 mi
3:56 AM50 °FClear.3 mph89%30.14 "Hg10 mi
2:56 AM50 °FClear.6 mph89%30.15 "Hg10 mi
1:56 AM51 °FClear.No wind86%30.13 "Hg10 mi
12:56 AM53 °FClear.No wind77%30.12 "Hg10 mi
11:56 PM
Tue, Jun 28
54 °FClear.3 mph72%30.11 "Hg10 mi
10:56 PM56 °FClear.5 mph70%30.11 "Hg10 mi
9:56 PM58 °FClear.No wind60%30.12 "Hg10 mi
8:56 PM59 °FClear.6 mph58%30.12 "Hg10 mi
7:56 PM62 °FSunny.9 mph54%30.12 "Hg10 mi
6:56 PM64 °FSunny.10 mph52%30.13 "Hg10 mi
5:56 PM64 °FSunny.13 mph52%30.14 "Hg10 mi
4:56 PM65 °FSunny.10 mph56%30.15 "Hg10 mi
3:56 PM64 °FOvercast.8 mph65%30.16 "Hg10 mi
Weather by CustomWeather, © 2016

See weather overviewHow to use our weather pages